GW1525 Weather Reports


Display with metric or nautical units.
time (UTC)temp
F
wind
direction
speed
MPH
gust
MPH
rain 1hr
in
rain 24hr
in
rain mn
in
humidity
%
barometer
mb
20260506121529 42 29 3.0 13.0 0.04 0.40 0.31 94 1011.7
20260506120026 42 360 2.0 14.0 0.03 0.39 0.31 94 1011.7
20260506113032 42 247 7.0 13.0 0.03 0.41 0.28 94 1011.8
20260506110034 41 90 4.0 10.0 0.03 0.40 0.28 94 1012.2
20260506104554 41 136 4.0 11.0 0.02 0.57 0.27 94 1012.5
20260506103028 41 287 6.0 10.0 0.02 0.56 0.25 94 1012.7
20260506101525 40 248 4.0 12.0 0.02 0.55 0.24 94 1012.3
20260506094529 40 317 3.0 14.0 0.02 0.66 0.24 93 1012.5
20260506091527 38 107 5.0 11.0 0.01 0.65 0.23 93 1012.5
20260506084523 39 227 3.0 11.0 0.02 0.67 0.23 93 1012.3
20260506081526 39 36 2.0 10.0 0.03 0.66 0.22 93 1012.5
20260506071530 38 298 0.0 5.0 0.09 0.65 0.19 93 1012.3
20260506043028 36 337 0.0 0.0 0.00 0.46 0.00 93 1012.1
20260506040037 38 28 0.0 4.0 0.00 0.46 0.00 94 1012.1
20260506034526 39 26 2.0 6.0 0.00 0.46 0.00 94 1012.3
20260506031528 39 30 1.0 5.0 0.00 0.46 0.00 94 1013.0
20260506024530 39 49 2.0 7.0 0.00 0.46 0.00 94 1013.4
20260506023024 38 74 4.0 6.0 0.00 0.46 0.00 94 1013.2
20260506020028 35 188 0.0 0.0 0.00 0.46 0.00 93 1013.4
20260506014525 36 188 0.0 0.0 0.00 0.46 0.00 93 1013.4
20260506013020 35 188 0.0 0.0 0.00 0.46 0.00 93 1013.6
20260506010030 34 188 0.0 4.0 0.00 0.46 0.00 93 1013.8
20260506003041 34 188 0.0 0.0 0.00 0.46 0.00 93 1013.9
20260506001530 35 188 0.0 0.0 0.00 0.46 0.00 93 1014.1
20260505234539 38 188 0.0 0.0 0.00 0.46 0.00 93 1014.1
20260505233023 37 188 0.0 2.0 0.00 0.46 0.00 93 1014.4
20260505230036 38 188 0.0 2.0 0.00 0.46 0.00 93 1014.4
20260505224524 38 188 0.0 0.0 0.00 0.46 0.00 93 1014.5
20260505223019 39 188 0.0 0.0 0.00 0.46 0.00 94 1014.6
20260505220048 38 188 0.0 1.0 0.00 0.46 0.00 94 1014.5
20260505214530 37 188 0.0 2.0 0.00 0.46 0.46 93 1014.8
20260505211529 35 297 0.0 1.0 0.00 0.46 0.46 92 1014.7
20260505204532 38 296 0.0 2.0 0.01 0.46 0.46 93 1014.7
20260505203020 39 296 0.0 4.0 0.01 0.46 0.46 93 1014.9
20260505200028 41 277 0.0 6.0 0.01 0.46 0.46 94 1014.9
20260505194513 41 271 1.0 4.0 0.00 0.45 0.45 93 1014.6
20260505191522 41 306 0.0 4.0 0.00 0.45 0.45 93 1014.8
20260505184526 41 83 2.0 7.0 0.00 0.45 0.45 93 1014.5
20260505181523 41 81 2.0 6.0 0.00 0.45 0.45 93 1014.1
20260505174532 41 314 0.0 8.0 0.00 0.45 0.45 93 1013.9
20260505171527 41 45 2.0 7.0 0.02 0.45 0.45 93 1013.8
20260505170025 41 22 4.0 8.0 0.02 0.45 0.45 93 1013.8
20260505164521 41 105 3.0 7.0 0.02 0.45 0.45 93 1013.9
20260505161533 41 71 2.0 9.0 0.02 0.43 0.43 93 1014.0
20260505153022 40 74 3.0 10.0 0.01 0.43 0.43 93 1013.8
20260505151521 40 86 4.0 8.0 0.00 0.42 0.42 93 1013.9
20260505124526 40 325 2.0 6.0 0.03 0.39 0.39 93 1014.1